Flag for Madagascar Weather past 2 weeks in Antananarivo, Madagascar

Now
64 °F

Passing clouds.


Feels Like: 64 °F
Forecast: 64 / 78 °F
Wind: 3 mph from East

Location: Antananarivo / Ivato


UV Index: 5 (Moderate)

Visibility: N/A


Pressure: 30.30 "Hg

Humidity: 100%

Dew point: 64 °F

Location of AntananarivoLocation

Historic Weather in Antananarivo

°F

Antananarivo temperature yesterday

Maximum temperature yesterday: 79 °F (at 1:00 PM)
Minimum temperature yesterday: 64 °F (at 10:00 PM)
Average temperature yesterday: 71 °F

Past Weeks' High & Low Weather Summary

 TemperatureHumidityPressure
High82 °F (Apr 6, 2:30 PM)100% (Apr 3, 11:00 PM)30.36 "Hg (Apr 3, 11:00 PM)
Low55 °F (Apr 10, 10:30 PM)54% (Apr 8, 1:00 PM)29.98 "Hg (Apr 6, 2:30 PM)
Average66 °F88%30.19 "Hg
* Reported Apr 3 11:00 PM — Apr 18 11:30 PM, Antananarivo, Weather by CustomWeather, © 2014

Note: Actual official high and low records may vary slightly from our data, if they occured in-between our weather recording intervals... More about our weather records

Advertising

Historic Weather Conditions — Data for Previous 24 hours

 ConditionsComfort  
Time TempWeatherWind HumidityBarometerVisibility
11:30 PM
Apr 18
64 °FPassing clouds.5 mph100%30.30 "HgN/A
11:00 PM64 °FPassing clouds.5 mph100%30.30 "HgN/A
10:30 PM64 °FPassing clouds.8 mph100%30.30 "HgN/A
10:00 PM64 °FPassing clouds.8 mph100%30.30 "HgN/A
9:30 PM66 °FPassing clouds.8 mph100%30.30 "HgN/A
9:00 PM66 °FPassing clouds.9 mph100%30.30 "HgN/A
8:00 PM66 °FPassing clouds.8 mph100%30.27 "HgN/A
7:30 PM66 °FPassing clouds.10 mph100%30.24 "HgN/A
7:00 PM68 °FPassing clouds.8 mph94%30.24 "HgN/A
6:30 PM68 °FPassing clouds.7 mph94%30.24 "HgN/A
6:00 PM70 °FPassing clouds.14 mph88%30.21 "HgN/A
5:30 PM72 °FScattered clouds.10 mph83%30.21 "HgN/A
5:00 PM75 °FScattered clouds.13 mph78%30.21 "HgN/A
4:30 PM77 °FScattered clouds.14 mph74%30.21 "HgN/A
4:00 PM77 °FScattered clouds.13 mph74%30.21 "HgN/A
3:30 PM79 °FScattered clouds.16 mph65%30.21 "HgN/A
3:00 PM79 °FScattered clouds.15 mph70%30.18 "HgN/A
2:30 PM79 °FPartly sunny.14 mph70%30.21 "HgN/A
2:00 PM79 °FPartly sunny.13 mph65%30.21 "HgN/A
1:30 PM77 °FPartly sunny.14 mph74%30.21 "HgN/A
1:00 PM79 °FPartly sunny.15 mph70%30.21 "HgN/A
12:30 PM77 °FPartly sunny.10 mph74%30.21 "HgN/A
12:00 PM77 °FPartly sunny.13 mph79%30.24 "HgN/A
11:30 AM77 °FPartly sunny.13 mph74%30.24 "HgN/A
11:00 AM75 °FPartly sunny.10 mph78%30.24 "HgN/A
10:30 AM75 °FPartly sunny.10 mph78%30.27 "HgN/A
10:00 AM75 °FPartly sunny.9 mph78%30.27 "HgN/A
9:30 AM72 °FPartly sunny.8 mph88%30.27 "HgN/A
9:00 AM73 °FPartly sunny.6 mph89%30.27 "HgN/A
8:00 AM70 °FPartly sunny.6 mph88%30.27 "HgN/A
7:00 AM66 °FPartly sunny.6 mph100%30.27 "HgN/A
6:30 AM66 °FPartly sunny.5 mph100%30.24 "HgN/A
6:00 AM66 °FPartly sunny.6 mph100%30.24 "HgN/A
5:30 AM66 °FPassing clouds.3 mph100%30.24 "HgN/A
5:00 AM66 °FPassing clouds.3 mph100%30.21 "HgN/A
4:30 AM66 °FPassing clouds.5 mph100%30.21 "HgN/A
3:30 AM66 °FPassing clouds.6 mph100%30.21 "HgN/A
3:00 AM66 °FPassing clouds.5 mph100%30.21 "HgN/A
2:00 AM66 °FPassing clouds.5 mph100%30.21 "HgN/A
1:30 AM66 °FPassing clouds.5 mph100%30.21 "HgN/A
1:00 AM66 °FPassing clouds.5 mph100%30.21 "HgN/A
Weather by CustomWeather, © 2014

See weather overview